• In Uzbekistan
  • List of Countries
  • For 7 days
  • Water Temperature
  • Satellite Maps
  • Weather Map
  • Weather Widgets
  • user-avatar
    Login

    Hourly Weather Knyazhpogost

    Today, 22 June, Friday

    Time Temperature Precipitation Wind Pressure Humidity
    00:00 +14°C° 0 mm 4 mps 740 mmHg 87%
    01:00 +14°C° 0 mm 4 mps 741 mmHg 88%
    02:00 +13°C° 0 mm 4 mps 741 mmHg 89%
    03:00 +13°C° 0 mm 4 mps 742 mmHg 91%
    04:00 +13°C° 0 mm 4 mps 742 mmHg 86%
    05:00 +14°C° 0 mm 4 mps 743 mmHg 82%
    06:00 +14°C° 0 mm 4 mps 743 mmHg 78%
    07:00 +15°C° 0 mm 4 mps 744 mmHg 76%
    08:00 +15°C° 0 mm 4 mps 744 mmHg 73%
    09:00 +17°C° 0 mm 4 mps 744 mmHg 70%
    10:00 +17°C° 0 mm 4 mps 745 mmHg 67%
    11:00 +18°C° 0 mm 4 mps 745 mmHg 64%
    12:00 +19°C° 0 mm 3 mps 745 mmHg 61%
    13:00 +20°C° 0 mm 3 mps 745 mmHg 57%
    14:00 +22°C° 0 mm 4 mps 746 mmHg 53%
    15:00 +23°C° 0 mm 4 mps 746 mmHg 49%
    16:00 +24°C° 0 mm 3 mps 746 mmHg 49%
    17:00 +24°C° 0 mm 3 mps 746 mmHg 50%
    18:00 +24°C° 0 mm 3 mps 746 mmHg 51%
    19:00 +21°C° 0 mm 3 mps 747 mmHg 58%
    20:00 +19°C° 0 mm 2 mps 747 mmHg 65%
    21:00 +17°C° 0 mm 2 mps 747 mmHg 72%
    22:00 +16°C° 0 mm 2 mps 748 mmHg 74%
    23:00 +15°C° 0 mm 2 mps 748 mmHg 76%

    Tomorrow, 23 June, Saturday

    Time Temperature Precipitation Wind Pressure Humidity
    00:00 +14°C° 0 mm 2 mps 748 mmHg 78%
    01:00 +14°C° 0 mm 1 mps 748 mmHg 79%
    02:00 +13°C° 0 mm 1 mps 748 mmHg 80%
    03:00 +13°C° 0 mm 1 mps 749 mmHg 80%
    04:00 +15°C° 0 mm 1 mps 749 mmHg 73%
    05:00 +18°C° 0 mm 1 mps 749 mmHg 66%
    06:00 +20°C° 0 mm 1 mps 749 mmHg 59%
    07:00 +22°C° 0 mm 1 mps 749 mmHg 53%
    08:00 +23°C° 0 mm 1 mps 749 mmHg 46%
    09:00 +25°C° 0 mm 1 mps 749 mmHg 39%
    10:00 +26°C° 0 mm 1 mps 749 mmHg 36%
    11:00 +27°C° 0 mm 1 mps 749 mmHg 34%
    12:00 +28°C° 0 mm 2 mps 749 mmHg 31%
    13:00 +29°C° 0 mm 2 mps 749 mmHg 31%
    14:00 +29°C° 0 mm 2 mps 749 mmHg 31%
    15:00 +30°C° 0 mm 1 mps 749 mmHg 31%
    16:00 +29°C° 0 mm 1 mps 749 mmHg 34%
    17:00 +29°C° 0 mm 1 mps 749 mmHg 38%
    18:00 +29°C° 0 mm 1 mps 749 mmHg 41%
    19:00 +26°C° 0.1 mm 1 mps 749 mmHg 48%
    20:00 +24°C° 0.1 mm 1 mps 749 mmHg 55%
    21:00 +22°C° 0.1 mm 1 mps 750 mmHg 62%
    22:00 +21°C° 0 mm 1 mps 750 mmHg 65%
    23:00 +18°C° 0 mm 0 mps 750 mmHg 67%

    Day after tomorrow, 24 June, Sunday

    Time Temperature Precipitation Wind Pressure Humidity
    00:00 +17°C° 0 mm 0 mps 750 mmHg 70%
    01:00 +17°C° 0 mm 0 mps 751 mmHg 72%
    02:00 +17°C° 0 mm 0 mps 751 mmHg 74%
    03:00 +16°C° 0 mm 0 mps 752 mmHg 76%
    04:00 +18°C° 0 mm 0 mps 752 mmHg 71%
    05:00 +20°C° 0 mm 0 mps 752 mmHg 67%
    06:00 +22°C° 0 mm 0 mps 752 mmHg 62%
    07:00 +24°C° 0 mm 0 mps 752 mmHg 56%
    08:00 +26°C° 0 mm 0 mps 752 mmHg 51%
    09:00 +30°C° 0 mm 1 mps 752 mmHg 45%
    10:00 +31°C° 0 mm 1 mps 752 mmHg 43%
    11:00 +31°C° 0 mm 1 mps 752 mmHg 41%
    12:00 +32°C° 0 mm 1 mps 752 mmHg 39%
    13:00 +32°C° 0 mm 1 mps 752 mmHg 37%
    14:00 +33°C° 0 mm 1 mps 752 mmHg 36%
    15:00 +33°C° 0 mm 1 mps 752 mmHg 35%
    16:00 +33°C° 0 mm 1 mps 752 mmHg 37%
    17:00 +32°C° 0 mm 1 mps 752 mmHg 39%
    18:00 +32°C° 0 mm 1 mps 751 mmHg 41%
    19:00 +30°C° 0 mm 1 mps 751 mmHg 48%
    20:00 +27°C° 0 mm 1 mps 752 mmHg 55%
    21:00 +25°C° 0 mm 1 mps 752 mmHg 62%
    22:00 +24°C° 0 mm 1 mps 752 mmHg 66%
    23:00 +23°C° 0 mm 1 mps 752 mmHg 69%

    25 June, Monday

    Time Temperature Precipitation Wind Pressure Humidity
    00:00 +23°C° 0 mm 1 mps 752 mmHg 72%
    01:00 +22°C° 0 mm 1 mps 752 mmHg 75%
    02:00 +22°C° 0 mm 1 mps 752 mmHg 78%
    03:00 +22°C° 0 mm 1 mps 752 mmHg 81%
    04:00 +24°C° 0 mm 1 mps 752 mmHg 75%
    05:00 +25°C° 0 mm 1 mps 752 mmHg 70%
    06:00 +27°C° 0 mm 1 mps 752 mmHg 65%
    07:00 +28°C° 0.9 mm 1 mps 752 mmHg 65%
    08:00 +29°C° 0.9 mm 1 mps 752 mmHg 64%
    09:00 +30°C° 0.9 mm 1 mps 752 mmHg 64%
    10:00 +31°C° 0.3 mm 1 mps 752 mmHg 57%
    11:00 +32°C° 0.3 mm 1 mps 752 mmHg 50%
    12:00 +33°C° 0.3 mm 1 mps 752 mmHg 44%
    13:00 +33°C° 0 mm 1 mps 752 mmHg 42%
    14:00 +33°C° 0 mm 1 mps 752 mmHg 41%
    15:00 +33°C° 0 mm 1 mps 752 mmHg 40%
    16:00 +33°C° 0 mm 1 mps 752 mmHg 42%
    17:00 +32°C° 0 mm 1 mps 752 mmHg 43%
    18:00 +32°C° 0 mm 1 mps 752 mmHg 45%
    19:00 +30°C° 0 mm 1 mps 753 mmHg 51%
    20:00 +28°C° 0 mm 1 mps 753 mmHg 57%
    21:00 +26°C° 0 mm 1 mps 753 mmHg 63%
    22:00 +23°C° 0 mm 0 mps 753 mmHg 66%
    23:00 +22°C° 0 mm 0 mps 753 mmHg 68%

    26 June, Tuesday

    Time Temperature Precipitation Wind Pressure Humidity
    00:00 +21°C° 0 mm 0 mps 753 mmHg 71%
    01:00 +21°C° 0 mm 0 mps 753 mmHg 72%
    02:00 +21°C° 0 mm 0 mps 753 mmHg 73%
    03:00 +21°C° 0 mm 0 mps 754 mmHg 74%
    04:00 +24°C° 0 mm 1 mps 754 mmHg 69%
    05:00 +26°C° 0 mm 1 mps 754 mmHg 65%
    06:00 +27°C° 0 mm 1 mps 754 mmHg 60%
    07:00 +29°C° 0 mm 1 mps 754 mmHg 54%
    08:00 +31°C° 0 mm 1 mps 754 mmHg 48%
    09:00 +33°C° 0 mm 1 mps 754 mmHg 43%
    10:00 +33°C° 0 mm 1 mps 754 mmHg 43%
    11:00 +32°C° 0 mm 1 mps 754 mmHg 44%
    12:00 +32°C° 0 mm 1 mps 754 mmHg 44%
    13:00 +32°C° 0 mm 1 mps 754 mmHg 43%
    14:00 +33°C° 0 mm 1 mps 754 mmHg 43%
    15:00 +33°C° 0 mm 1 mps 754 mmHg 42%
    16:00 +32°C° 0 mm 1 mps 754 mmHg 44%
    17:00 +32°C° 0 mm 1 mps 754 mmHg 46%
    18:00 +31°C° 0 mm 2 mps 754 mmHg 48%
    19:00 +30°C° 0.1 mm 1 mps 754 mmHg 54%
    20:00 +28°C° 0.1 mm 1 mps 755 mmHg 60%
    21:00 +26°C° 0.1 mm 1 mps 755 mmHg 67%
    22:00 +25°C° 0.5 mm 1 mps 755 mmHg 71%
    23:00 +24°C° 0.5 mm 1 mps 755 mmHg 75%

    27 June, Wednesday

    Time Temperature Precipitation Wind Pressure Humidity
    00:00 +23°C° 0.5 mm 1 mps 755 mmHg 79%
    01:00 +23°C° 0.1 mm 1 mps 755 mmHg 80%
    02:00 +23°C° 0.1 mm 1 mps 755 mmHg 82%
    03:00 +22°C° 0.1 mm 1 mps 756 mmHg 83%
    04:00 +23°C° 0 mm 1 mps 756 mmHg 78%
    05:00 +25°C° 0 mm 1 mps 756 mmHg 74%
    06:00 +26°C° 0 mm 1 mps 756 mmHg 69%
    07:00 +28°C° 0 mm 1 mps 756 mmHg 61%
    08:00 +30°C° 0 mm 1 mps 756 mmHg 53%
    09:00 +32°C° 0 mm 1 mps 756 mmHg 45%
    10:00 +33°C° 0 mm 1 mps 756 mmHg 41%
    11:00 +34°C° 0 mm 1 mps 756 mmHg 37%
    12:00 +35°C° 0 mm 1 mps 756 mmHg 33%
    13:00 +34°C° 0 mm 1 mps 756 mmHg 37%
    14:00 +32°C° 0 mm 1 mps 756 mmHg 40%
    15:00 +29°C° 0 mm 0 mps 756 mmHg 44%
    16:00 +31°C° 0 mm 1 mps 756 mmHg 45%
    17:00 +31°C° 0 mm 1 mps 756 mmHg 46%
    18:00 +31°C° 0 mm 1 mps 755 mmHg 47%
    19:00 +29°C° 0 mm 1 mps 756 mmHg 54%
    20:00 +27°C° 0 mm 1 mps 756 mmHg 60%
    21:00 +25°C° 0 mm 1 mps 756 mmHg 67%
    22:00 +24°C° 0.3 mm 1 mps 756 mmHg 73%
    23:00 +23°C° 0.3 mm 1 mps 756 mmHg 79%
    Show more